Regional Weather Roundup
Issued by NWS Kansas City/Pleasant Hill, MO

Home | Current Version | Previous Version | Text Only | Print | Product List | Glossary On
Versions: 1 2 3 4 5 6 7 8 9 10 11 12 13 14 15 16 17 18 19 20 21 22 23 24 25 26 27 28 29 30 31 32 33 34 35 36 37 38 39 40 41 42 43 44 45 46 47 48 49 50
000
ASUS43 KEAX 280310
RWREAX

WEATHER ROUNDUP FOR EASTERN KANSAS AND NORTHWEST MISSOURI
NATIONAL WEATHER SERVICE KANSAS CITY/PLEASANT HILL MO
1000 PM CDT THU AUG 27 2015

KSZ040-057-103>105-MOZ028-029-037-043-280400-
...KANSAS CITY METROPOLITAN AREA...

CITY           SKY/WX    TMP DP  RH WIND       PRES   REMARKS
K.C. INTL      CLOUDY    71  64  78 SE14      30.00S
K.C. DOWNTOWN  CLOUDY    73  65  75 SE8       30.00R
LEES SUMMIT      N/A     70  64  81 S6        30.03R
OLATHE - IXD   CLOUDY    70  66  87 SE13      30.01R
OLATHE - OJC   CLOUDY    68  66  93 S9        30.01R
LAWRENCE       CLOUDY    71  67  87 SE8       29.98S

$$

MOZ001>008-011>017-020>025-030>033-038>040-044>046-053-054-280400-
...NORTHERN AND CENTRAL MISSOURI...

CITY           SKY/WX    TMP DP  RH WIND       PRES   REMARKS
ST. JOSEPH     CLOUDY    71  65  81 S8        30.00R
MOSBY          MOCLDY    68  63  83 SE5       30.02R
WARRENSBURG    PTCLDY    68  63  83 SE7       30.03R
WHITEMAN AFB   PTCLDY    69  63  79 S8        30.03R
CLINTON          N/A     70  66  88 CALM      30.04R FOG
SEDALIA        CLOUDY    67  60  78 S6        30.06R
WARSAW         NOT AVBL
CHILLICOTHE      N/A     69  62  78 VRB3      30.05R
KIRKSVILLE     MOCLDY    65  59  81 SE7       30.06R

$$

MOZ041-047>049-056>058-063>065-088>090-097-280400-
...EASTERN AND SOUTHERN MISSOURI...

CITY           SKY/WX    TMP DP  RH WIND       PRES   REMARKS
ST. LOUIS INTL MOCLDY    71  56  58 CALM      30.10R
SPIRIT OF STL  CLEAR     63  61  93 CALM      30.08R
COLUMBIA       PTCLDY    66  62  87 SE8       30.07R
JEFFERSON CITY PTCLDY    66  61  84 SE6       30.06R
ROLLA          CLEAR     63  60  90 E7        30.08R
OSAGE BEACH    PTCLDY    63  59  88 SE3       30.07R
SPRINGFIELD    MOCLDY    70  63  78 SE10      30.07R
BRANSON        CLOUDY    64  63  94 CALM      30.10R
JOPLIN         PTCLDY    70  66  87 S6        30.04R
WEST PLAINS    CLEAR     64  58  80 S5        30.10R

$$

IAZ060-094-KSZ022-034>040-054-083-096-NEZ052-066-093-280400-
...KANSAS...SOUTHEAST NEBRASKA AND IOWA...

CITY           SKY/WX    TMP DP  RH WIND       PRES   REMARKS
TOPEKA         CLOUDY    72  67  84 SE8       29.98R
MANHATTAN      CLOUDY    77  66  68 SE5       29.92R
EMPORIA        CLOUDY    73  67  81 SE15      29.95S
CHANUTE        CLOUDY    70  64  81 SE7       29.99S
WICHITA        CLOUDY    77  67  71 SE17      29.93R
OMAHA          CLOUDY    73  67  81 SE17      29.94R
LINCOLN        LGT RAIN  75  65  70 SE18G29   29.88F
FALLS CITY     LGT RAIN  70  67  90 SE12      29.95F
LAMONI         MOCLDY    67  61  81 SE7       30.01R
DES MOINES     MOCLDY    69  60  73 SE13G20   30.02R

$$




USA.gov is the U.S. government's official web portal to all federal, state and local government web resources and services.